Weather History for KNSI - October, 2012

Change the Weather History Date:

Friday, October 26, 2012

  Actual Average Record
Temperature  
Mean Temperature 78 °F -  
Max Temperature 96 °F 65 °F 96 °F (2012)
Min Temperature 64 °F 54 °F 52 °F (1998)
Cooling Degree Days 14    
Growing Degree Days 28 (Base 50)    
Moisture  
Dew Point 46 °F    
Average Humidity 36    
Maximum Humidity 57    
Minimum Humidity 15    
Precipitation  
Precipitation 0.00 in - - ()
Sea Level Pressure  
Sea Level Pressure 29.96 in    
Wind  
Wind Speed 13 mph (NNW)    
Max Wind Speed 18 mph    
Max Gust Speed -    
Visibility 7 miles    
Events      
Averages and records for this station are not official NWS values.
T = Trace of Precipitation, MM = Missing Value Source: NWS Daily Summary

Daily Weather History Graph

Daily Weather History Graph

Search for Another Location

Airport or City:

Trip Planner

Search our weather history database for the weather conditions in past years. The results will help you decide how hot, cold, wet, or windy it might be!

Date:

Astronomy

Oct. 26, 2012 Rise Set
Actual Time 7:11 AM PDT 6:11 PM PDT
Civil Twilight 6:46 AM PDT 6:36 PM PDT
Nautical Twilight 6:17 AM PDT 7:05 PM PDT
Astronomical Twilight 5:48 AM PDT 7:34 PM PDT
Moon 4:23 PM PDT (10/26) 4:20 AM PDT (10/26)
Length of Visible Light 11h 50m
Length of Day
10h 59m
Waxing Gibbous, 91% of the Moon is Illuminated
Oct 26
Waxing Gibbous
Oct 29
Full
Nov 6
Last Quarter
Nov 13
New
Nov 20
First Quarter

Hourly Weather History & Observations

Time (PDT) Temp. Dew Point Humidity Pressure Visibility Wind Dir Wind Speed Gust Speed Precip Events Conditions
12:53 AM 71.1 °F 55.0 °F 57% 29.97 in - WNW 18.4 mph - N/A   Clear
1:53 AM 72.0 °F 54.0 °F 53% 29.95 in - NW 15.0 mph - N/A   Clear
2:53 AM 73.0 °F 54.0 °F 51% 29.95 in - NW 15.0 mph - N/A   Clear
3:53 AM 73.9 °F 53.1 °F 48% 29.94 in - NW 12.7 mph - N/A   Clear
4:53 AM 75.9 °F 52.0 °F 43% 29.94 in - NW 12.7 mph - N/A   Clear
5:53 AM 69.1 °F 48.9 °F 49% 29.95 in - North 9.2 mph - N/A   Clear
6:53 AM 64.9 °F 48.9 °F 56% 29.97 in - North 8.1 mph - N/A   Clear
7:53 AM 69.1 °F 48.0 °F 47% 29.99 in - NNE 8.1 mph - N/A   Clear
8:53 AM 73.0 °F 46.0 °F 38% 30.01 in - NNE 11.5 mph - N/A   Clear
9:53 AM 75.9 °F 43.0 °F 31% 30.02 in - North 9.2 mph - N/A   Clear
10:27 AM 75.2 °F 44.6 °F 34% 30.03 in 7.0 mi NNE 12.7 mph - N/A   Clear
10:53 AM 75.0 °F 44.1 °F 33% 30.02 in 7.0 mi NNE 10.4 mph - N/A   Clear
11:53 AM 75.2 °F 46.0 °F 35% 30.01 in 7.0 mi NNE 12.7 mph - N/A   Clear
12:53 PM 76.6 °F 43.0 °F 30% 29.99 in 7.0 mi NNE 10.4 mph - N/A   Clear
1:53 PM 76.8 °F 37.9 °F 25% 29.97 in 7.0 mi North 10.4 mph - N/A   Clear
2:53 PM 79.2 °F 32.0 °F 18% 29.95 in 7.0 mi North 9.2 mph - N/A   Clear
3:53 PM 80.1 °F 28.9 °F 15% 29.94 in 7.0 mi NNW 9.2 mph - N/A   Clear
4:53 PM 93.0 °F 39.0 °F 15% 29.93 in - NW 9.2 mph - N/A   Clear
5:53 PM 82.0 °F 46.0 °F 28% 29.94 in - WNW 13.8 mph - N/A   Clear
6:53 PM 77.0 °F 44.1 °F 31% 29.95 in - WNW 17.3 mph - N/A   Clear
7:53 PM 78.1 °F 46.0 °F 32% 29.95 in - WNW 13.8 mph - N/A   Clear
8:53 PM 78.1 °F 48.0 °F 35% 29.94 in - WNW 15.0 mph - N/A   Clear
9:53 PM 79.0 °F 48.9 °F 35% 29.94 in - NW 11.5 mph - N/A   Clear
10:53 PM 80.1 °F 45.0 °F 29% 29.93 in - NW 13.8 mph - N/A   Clear
11:53 PM 80.1 °F 43.0 °F 27% 29.92 in - NW 13.8 mph - N/A   Clear